COSMOS 2545 [GLONASS-M] (45358 NORAD) Tracking and Keplerian Element Data

This shows tracking and keplerian element data for the satellite.

Feedback or suggestion? Click here.




ElementValue
Catalog45358
NameCOSMOS 2545 [GLONASS-M]
Epoch Orbit6
Epoch Day79.66158661
Epoch Year2020
RAAN31.7247
Inclination64.8019
Eccentricity0.0004707
Argument of Perigee265.8293
Mean Anonmoly99.3887
Mean Motion2.12942271
Decay Rate-7.2E-07
L11 45358U 20018A 20079.66158661 -.00000072 00000-0 10000-3 0 9997
L22 45358 64.8019 31.7247 0004707 265.8293 99.3887 2.12942271 62

Live tracking and technical data element details for COSMOS 2545 [GLONASS-M] (NORAD 45358). COSMOS 2545 [GLONASS-M] can be tracked NOW for your location showing map with azimuth and elevation plus other details from your city location.

Track the satellite on the map from your city or location and see movement details for azimuth, elevation, latitude, longitude, range, height, and movement on the map or in text.







IsCatalogInMostPopularTable: catalog: 45358, numindb: -1

Insert: records affected: 1


GetName: 45358 COSMOS 2545 [GLONASS-M]

Hit Count: inserted at: Tue, 31 Mar 2020 13:23:03 GMT